Preview of NWS' New Version of Forecast
This preview is not operational and should not be used for support decisions.

Regional Weather Roundup (RWR)

Issued by National Weather Service (NWS)

                            
000
ASUS43 KLSX 190557
RWRMO 

WEATHER SUMMARY FOR MISSOURI
NATIONAL WEATHER SERVICE SPRINGFIELD MO
100 AM CDT FRI APR 19 2019

NOTE: "FAIR" INDICATES FEW OR NO CLOUDS BELOW 12,000 FEET WITH NO
       SIGNIFICANT WEATHER AND/OR OBSTRUCTIONS TO VISIBILITY.
       CURRENT SKY AND/OR WEATHER CONDITIONS ARE NOT AVAILABLE FOR
       CHILLICOTHE AND FARMINGTON.

MOZ001>031-035>038-043-044-053-054-190700-
...NORTHERN AND WESTERN MISSOURI...
  
CITY           SKY/WX    TMP DP  RH WIND       PRES   REMARKS
KANSAS CTY INT PTCLDY    47  38  71 N12       29.94R                  
6HR MIN TEMP:  47; 6HR MAX TEMP:  58;                                

LEE'S SUMMIT   CLEAR     48  38  68 MISG      29.92R                  
6HR MIN TEMP:  48; 6HR MAX TEMP:  58;                                

ST JOSEPH      MOCLDY    48  40  73 N10       29.98R                  
6HR MIN TEMP:  48; 6HR MAX TEMP:  59;                                

CHILLICOTHE      N/A     49  37  63 N5        29.93R                  
6HR MIN TEMP:  49; 6HR MAX TEMP:  57;                                

     
$$
MOZ066>068-077>081-088>096-101>105-190700-
...SOUTHWEST MISSOURI...
  
CITY           SKY/WX    TMP DP  RH WIND       PRES   REMARKS
SPRINGFIELD    CLEAR     45  38  76 NW10      29.84R                  
6HR MIN TEMP:  44; 6HR MAX TEMP:  54;                                

JOPLIN         CLOUDY    46  40  79 N5        29.89R                  
6HR MIN TEMP:  44; 6HR MAX TEMP:  59;                                

               
$$
MOZ032>034-039>042-045>050-055>058-069>072-190700-
...CENTRAL MISSOURI...  
  
CITY           SKY/WX    TMP DP  RH WIND       PRES   REMARKS
COLUMBIA       NOT AVBL                                               
JEFFERSON CITY CLOUDY    52  36  54 N9        29.83R                  
6HR MIN TEMP:  52; 6HR MAX TEMP:  55;                                

ROLLA          MOCLDY    48  39  71 N9        29.80R                  
6HR MIN TEMP:  48; 6HR MAX TEMP:  49;                                

SEDALIA        CLOUDY    47  39  74 N16       29.87S                  
6HR MIN TEMP:  47; 6HR MAX TEMP:  53;                                

WARRENSBURG    PTCLDY    46  37  71 N7        29.90R                  
               
$$
MOZ051-052-059>065-190700-
...EAST CENTRAL MISSOURI...
  
CITY           SKY/WX    TMP DP  RH WIND       PRES   REMARKS
ST LOUIS INTL  CLOUDY    48  37  65 N14G22    29.78R                  
6HR MIN TEMP:  48; 6HR MAX TEMP:  51; 6HR PCP: TRACE;                

                   
$$
MOZ072>076-082>087-097>100-106>115-190700-
...SOUTH CENTRAL AND SOUTHEAST MISSOURI...
  
CITY           SKY/WX    TMP DP  RH WIND       PRES   REMARKS
CAPE GIRARDEAU LGT RAIN  48  44  86 N16       29.69F                  
6HR MIN TEMP:  48; 6HR MAX TEMP:  49; 6HR PCP:  0.19;                

POPLAR BLUFF   LGT RAIN  48  46  93 N13       29.71S                  
6HR MIN TEMP:  48; 6HR MAX TEMP:  51; 6HR PCP:  0.43;                

WEST PLAINS    CLOUDY    47  43  86 NW7       29.78S                  
6HR MIN TEMP:  47; 6HR MAX TEMP:  48; 6HR PCP:  0.01;                

                                       
$$